| time (UTC) | temp F | wind direction | speed MPH | gust MPH | rain 1hr in | rain 24hr in | rain mn in | humidity % | barometer mb |
| 20260902194003 | 87 | 228 | 10.0 | 16.0 | 0.00 | 0.28 | 0.28 | 65 | 1014.9 |
| 20260902193005 | 87 | 228 | 6.0 | 12.0 | 0.00 | 0.28 | 0.28 | 65 | 1014.8 |
| 20260902192005 | 87 | 228 | 6.0 | 12.0 | 0.00 | 0.28 | 0.28 | 66 | 1015.0 |
| 20260902191006 | 87 | 250 | 8.0 | 13.0 | 0.00 | 0.28 | 0.28 | 68 | 1015.1 |
| 20260902190007 | 86 | 228 | 8.0 | 13.0 | 0.00 | 0.28 | 0.28 | 70 | 1015.1 |
| 20260902185002 | 86 | 228 | 7.0 | 11.0 | 0.00 | 0.28 | 0.28 | 69 | 1014.9 |
| 20260902184003 | 86 | 205 | 5.0 | 7.0 | 0.00 | 0.28 | 0.28 | 70 | 1015.0 |
| 20260902183004 | 85 | 205 | 5.0 | 9.0 | 0.00 | 0.28 | 0.28 | 69 | 1015.1 |
| 20260902182005 | 85 | 183 | 4.0 | 8.0 | 0.00 | 0.28 | 0.28 | 69 | 1015.1 |
| 20260902181005 | 83 | 205 | 4.0 | 6.0 | 0.00 | 0.28 | 0.28 | 73 | 1015.5 |
| 20260902180008 | 83 | 160 | 5.0 | 7.0 | 0.00 | 0.28 | 0.28 | 71 | 1015.7 |
| 20260902175002 | 85 | 160 | 3.0 | 4.0 | 0.00 | 0.28 | 0.28 | 70 | 1015.8 |
| 20260902174003 | 85 | 183 | 4.0 | 6.0 | 0.00 | 0.28 | 0.28 | 71 | 1015.8 |
| 20260902173011 | 82 | 228 | 8.0 | 9.0 | 0.00 | 0.28 | 0.28 | 72 | 1015.9 |
| 20260902172005 | 84 | 250 | 4.0 | 6.0 | 0.00 | 0.28 | 0.28 | 70 | 1016.0 |
| 20260902171006 | 83 | 160 | 2.0 | 3.0 | 0.00 | 0.28 | 0.28 | 71 | 1015.9 |
| 20260902165006 | 84 | 295 | 2.0 | 3.0 | 0.00 | 0.28 | 0.28 | 73 | 1016.0 |
| 20260902164002 | 83 | 318 | 2.0 | 3.0 | 0.00 | 0.28 | 0.28 | 81 | 1016.0 |
| 20260902163003 | 80 | 340 | 2.0 | 3.0 | 0.00 | 0.28 | 0.28 | 83 | 1016.0 |
| 20260902162004 | 80 | 228 | 3.0 | 4.0 | 0.00 | 0.28 | 0.28 | 86 | 1016.0 |
| 20260902161005 | 80 | 318 | 0.0 | 2.0 | 0.00 | 0.28 | 0.28 | 88 | 1016.0 |
| 20260902160009 | 77 | 183 | 2.0 | 4.0 | 0.00 | 0.28 | 0.28 | 92 | 1016.0 |
| 20260902155007 | 74 | 48 | 1.0 | 1.0 | 0.00 | 0.28 | 0.28 | 96 | 1016.2 |
| 20260902154002 | 72 | 183 | 4.0 | 6.0 | 0.00 | 0.28 | 0.28 | 97 | 1016.4 |
| 20260902153003 | 71 | 205 | 1.0 | 2.0 | 0.00 | 0.28 | 0.28 | 97 | 1016.6 |
| 20260902152004 | 70 | 115 | 1.0 | 3.0 | 0.00 | 0.28 | 0.28 | 97 | 1016.7 |
| 20260902151005 | 69 | 273 | 3.0 | 6.0 | 0.00 | 0.27 | 0.27 | 97 | 1016.6 |
| 20260902150005 | 69 | 160 | 5.0 | 6.0 | 0.00 | 0.26 | 0.26 | 97 | 1016.6 |
| 20260902145006 | 69 | 93 | 5.0 | 6.0 | 0.00 | 0.25 | 0.25 | 97 | 1016.8 |
| 20260902144002 | 69 | 115 | 4.0 | 6.0 | 0.00 | 0.24 | 0.24 | 96 | 1017.4 |
| 20260902142002 | 69 | 48 | 5.0 | 7.0 | 0.00 | 0.21 | 0.21 | 96 | 1016.9 |
| 20260902140004 | 69 | 138 | 1.0 | 1.0 | 0.00 | 0.21 | 0.21 | 96 | 1016.4 |
| 20260902135005 | 69 | 318 | 1.0 | 3.0 | 0.00 | 0.21 | 0.21 | 95 | 1016.7 |
| 20260902134006 | 69 | 228 | 5.0 | 7.0 | 0.00 | 0.20 | 0.20 | 95 | 1016.6 |
| 20260902133001 | 69 | 228 | 8.0 | 16.0 | 0.00 | 0.18 | 0.18 | 95 | 1016.6 |
| 20260902132001 | 69 | 273 | 11.0 | 16.0 | 0.00 | 0.11 | 0.11 | 95 | 1017.3 |
| 20260902131003 | 70 | 273 | 5.0 | 7.0 | 0.00 | 0.11 | 0.11 | 94 | 1016.6 |
| 20260902125003 | 70 | 228 | 5.0 | 9.0 | 0.00 | 0.11 | 0.11 | 94 | 1016.7 |
| 20260902124004 | 70 | 228 | 8.0 | 12.0 | 0.00 | 0.09 | 0.09 | 95 | 1016.4 |
| 20260902123005 | 70 | 228 | 8.0 | 11.0 | 0.00 | 0.09 | 0.09 | 95 | 1015.9 |
| 20260902122006 | 70 | 250 | 8.0 | 11.0 | 0.00 | 0.08 | 0.08 | 96 | 1016.1 |
| 20260902121001 | 70 | 250 | 5.0 | 9.0 | 0.00 | 0.07 | 0.07 | 96 | 1016.2 |
| 20260902120001 | 71 | 273 | 5.0 | 8.0 | 0.00 | 0.06 | 0.06 | 97 | 1016.3 |
| 20260902115003 | 71 | 250 | 9.0 | 11.0 | 0.00 | 0.04 | 0.04 | 97 | 1016.8 |
| 20260902114003 | 71 | 318 | 3.0 | 5.0 | 0.00 | 0.02 | 0.02 | 97 | 1017.2 |
| 20260902113004 | 71 | 295 | 2.0 | 6.0 | 0.00 | 0.01 | 0.01 | 96 | 1016.9 |
| 20260902112004 | 70 | 318 | 1.0 | 4.0 | 0.00 | 0.00 | 0.00 | 96 | 1016.2 |
| 20260902111005 | 70 | 295 | 2.0 | 3.0 | 0.00 | 0.00 | 0.00 | 96 | 1016.0 |
| 20260902110008 | 70 | 70 | 2.0 | 3.0 | 0.00 | 0.00 | 0.00 | 96 | 1015.4 |
| 20260902105001 | 70 | 250 | 0.0 | 1.0 | 0.00 | 0.00 | 0.00 | 96 | 1015.7 |
| 20260902103006 | 70 | 138 | 2.0 | 4.0 | 0.00 | 0.00 | 0.00 | 96 | 1015.2 |
| 20260902102001 | 69 | 340 | 2.0 | 2.0 | 0.00 | 0.00 | 0.00 | 96 | 1015.3 |
| 20260902101002 | 69 | 138 | 2.0 | 3.0 | 0.00 | 0.00 | 0.00 | 96 | 1015.3 |
| 20260902095002 | 69 | 138 | 3.0 | 4.0 | 0.00 | 0.00 | 0.00 | 95 | 1015.2 |
| 20260902093002 | 68 | 160 | 2.0 | 3.0 | 0.00 | 0.00 | 0.00 | 95 | 1015.2 |
| 20260902092003 | 68 | 70 | 1.0 | 2.0 | 0.00 | 0.00 | 0.00 | 94 | 1015.3 |
| 20260902091004 | 69 | 93 | 1.0 | 2.0 | 0.00 | 0.00 | 0.00 | 94 | 1015.7 |
| 20260902090005 | 69 | 138 | 2.0 | 2.0 | 0.00 | 0.00 | 0.00 | 94 | 1015.7 |
| 20260902085005 | 69 | 48 | 3.0 | 3.0 | 0.00 | 0.00 | 0.00 | 94 | 1015.8 |
| 20260902084006 | 69 | 93 | 2.0 | 3.0 | 0.00 | 0.00 | 0.00 | 93 | 1015.9 |
| 20260902082006 | 70 | 183 | 2.0 | 4.0 | 0.00 | 0.00 | 0.00 | 92 | 1016.0 |
| 20260902080006 | 70 | 160 | 2.0 | 3.0 | 0.00 | 0.00 | 0.00 | 92 | 1015.9 |
| 20260902075001 | 70 | 138 | 5.0 | 6.0 | 0.00 | 0.00 | 0.00 | 92 | 1015.9 |
| 20260902074002 | 70 | 115 | 2.0 | 3.0 | 0.00 | 0.00 | 0.00 | 91 | 1016.0 |
| 20260902073003 | 70 | 160 | 2.0 | 3.0 | 0.00 | 0.00 | 0.00 | 91 | 1016.0 |
| 20260902072005 | 70 | 160 | 1.0 | 3.0 | 0.00 | 0.00 | 0.00 | 90 | 1016.0 |
| 20260902071005 | 70 | 70 | 3.0 | 4.0 | 0.00 | 0.00 | 0.00 | 89 | 1015.9 |
| 20260902065005 | 71 | 138 | 2.0 | 3.0 | 0.00 | 0.00 | 0.00 | 88 | 1016.1 |
| 20260902064006 | 72 | 115 | 3.0 | 6.0 | 0.00 | 0.00 | 0.00 | 87 | 1016.0 |
| 20260902063001 | 72 | 205 | 4.0 | 6.0 | 0.00 | 0.00 | 0.00 | 87 | 1016.3 |
| 20260902062002 | 72 | 250 | 0.0 | 1.0 | 0.00 | 0.00 | 0.00 | 88 | 1016.2 |
| 20260902060002 | 72 | 160 | 3.0 | 4.0 | 0.00 | 0.00 | 0.00 | 88 | 1016.2 |
| 20260902055004 | 73 | 160 | 2.0 | 3.0 | 0.00 | 0.00 | 0.00 | 89 | 1016.1 |
| 20260902054004 | 72 | 183 | 3.0 | 4.0 | 0.00 | 0.00 | 0.00 | 90 | 1016.2 |
| 20260902053005 | 71 | 205 | 2.0 | 3.0 | 0.00 | 0.00 | 0.00 | 92 | 1016.1 |
| 20260902052006 | 71 | 273 | 0.0 | 1.0 | 0.00 | 0.00 | 0.00 | 93 | 1016.0 |
| 20260902051009 | 71 | 25 | 0.0 | 0.0 | 0.00 | 0.00 | 0.00 | 92 | 1016.0 |
| 20260902045002 | 71 | 70 | 0.0 | 2.0 | 0.00 | 0.00 | 0.00 | 92 | 1016.0 |
| 20260902044002 | 71 | 160 | 1.0 | 2.0 | 0.00 | 0.00 | 0.00 | 92 | 1015.9 |
| 20260902043003 | 71 | 228 | 1.0 | 1.0 | 0.00 | 0.00 | 0.00 | 92 | 1016.0 |
| 20260902042005 | 71 | 205 | 0.0 | 1.0 | 0.00 | 0.00 | 0.00 | 92 | 1016.0 |
| 20260902041005 | 71 | 228 | 0.0 | 0.0 | 0.00 | 0.00 | 0.00 | 92 | 1016.0 |
| 20260902040005 | 71 | 3 | 1.0 | 1.0 | 0.00 | 0.00 | 0.00 | 92 | 1016.0 |
| 20260902035005 | 71 | 115 | 1.0 | 1.0 | 0.00 | 0.00 | 0.00 | 92 | 1015.9 |
| 20260902034005 | 71 | 205 | 2.0 | 2.0 | 0.00 | 0.00 | 0.00 | 91 | 1015.7 |
| 20260902033006 | 71 | 115 | 1.0 | 1.0 | 0.00 | 0.00 | 0.00 | 91 | 1015.8 |
| 20260902032007 | 71 | 205 | 0.0 | 0.0 | 0.00 | 0.00 | 0.00 | 90 | 1015.6 |
| 20260902030002 | 72 | 183 | 0.0 | 1.0 | 0.00 | 0.00 | 0.00 | 89 | 1015.4 |
| 20260902025003 | 72 | 250 | 1.0 | 1.0 | 0.00 | 0.00 | 0.00 | 87 | 1015.4 |
| 20260902023003 | 73 | 318 | 0.0 | 1.0 | 0.00 | 0.00 | 0.00 | 86 | 1015.3 |
| 20260902022004 | 74 | 318 | 1.0 | 1.0 | 0.00 | 0.00 | 0.00 | 85 | 1015.3 |
| 20260902021005 | 74 | 205 | 1.0 | 2.0 | 0.00 | 0.00 | 0.00 | 84 | 1015.3 |
| 20260902020006 | 74 | 273 | 0.0 | 1.0 | 0.00 | 0.00 | 0.00 | 84 | 1015.4 |
| 20260902015007 | 75 | 115 | 2.0 | 3.0 | 0.00 | 0.00 | 0.00 | 83 | 1015.4 |
| 20260902014002 | 75 | 138 | 3.0 | 4.0 | 0.00 | 0.00 | 0.00 | 82 | 1015.5 |
| 20260902013003 | 75 | 183 | 3.0 | 4.0 | 0.00 | 0.00 | 0.00 | 82 | 1015.4 |
| 20260902005002 | 77 | 250 | 1.0 | 1.0 | 0.00 | 0.00 | 0.00 | 81 | 1015.4 |
| 20260902003003 | 78 | 138 | 3.0 | 4.0 | 0.00 | 0.00 | 0.00 | 80 | 1015.6 |
| 20260902002004 | 78 | 205 | 4.0 | 4.0 | 0.00 | 0.00 | 0.00 | 80 | 1015.4 |
| 20260902001005 | 78 | 295 | 3.0 | 4.0 | 0.00 | 0.00 | 0.00 | 79 | 1015.2 |
| 20260902000005 | 78 | 228 | 0.0 | 1.0 | 0.00 | 0.00 | 0.00 | 78 | 1015.2 |
| 20260901234006 | 79 | 273 | 2.0 | 5.0 | 0.00 | 0.00 | 0.00 | 77 | 1015.3 |
| 20260901233007 | 79 | 273 | 4.0 | 9.0 | 0.00 | 0.00 | 0.00 | 77 | 1015.3 |
| 20260901231007 | 82 | 273 | 4.0 | 7.0 | 0.00 | 0.00 | 0.00 | 73 | 1015.0 |
| 20260901230002 | 82 | 228 | 1.0 | 3.0 | 0.00 | 0.00 | 0.00 | 71 | 1014.6 |
| 20260901225003 | 83 | 273 | 2.0 | 4.0 | 0.00 | 0.00 | 0.00 | 70 | 1014.2 |
| 20260901224004 | 83 | 340 | 2.0 | 4.0 | 0.00 | 0.00 | 0.00 | 70 | 1014.4 |
| 20260901223006 | 83 | 318 | 3.0 | 7.0 | 0.00 | 0.00 | 0.00 | 69 | 1014.6 |
| 20260901222007 | 83 | 25 | 2.0 | 6.0 | 0.00 | 0.00 | 0.00 | 69 | 1014.6 |
| 20260901221007 | 84 | 273 | 3.0 | 7.0 | 0.00 | 0.00 | 0.00 | 67 | 1014.7 |
| 20260901220002 | 85 | 3 | 2.0 | 4.0 | 0.00 | 0.00 | 0.00 | 67 | 1014.7 |
| 20260901215002 | 85 | 250 | 2.0 | 6.0 | 0.00 | 0.00 | 0.00 | 65 | 1014.8 |
| 20260901214003 | 85 | 183 | 4.0 | 9.0 | 0.00 | 0.00 | 0.00 | 65 | 1014.8 |
| 20260901213004 | 86 | 318 | 3.0 | 6.0 | 0.00 | 0.00 | 0.00 | 64 | 1014.9 |
| 20260901212005 | 86 | 250 | 4.0 | 9.0 | 0.00 | 0.00 | 0.00 | 64 | 1014.7 |
| 20260901205005 | 87 | 295 | 4.0 | 8.0 | 0.00 | 0.00 | 0.00 | 65 | 1014.5 |
| 20260901204006 | 86 | 25 | 2.0 | 6.0 | 0.00 | 0.00 | 0.00 | 67 | 1014.6 |
| 20260901203007 | 87 | 250 | 2.0 | 10.0 | 0.00 | 0.00 | 0.00 | 65 | 1014.8 |
| 20260901201007 | 88 | 115 | 4.0 | 7.0 | 0.00 | 0.00 | 0.00 | 62 | 1014.6 |
| 20260901200001 | 89 | 273 | 1.0 | 3.0 | 0.00 | 0.00 | 0.00 | 62 | 1014.5 |
| 20260901195003 | 88 | 340 | 6.0 | 11.0 | 0.00 | 0.00 | 0.00 | 60 | 1014.5 |